CZ-6A DEB, 55199

Orbit data source: Space-Track

CZ-6A DEB, 55199 is space debris in SSO originally from a launch on Fri, 11 Nov 2022 UTC launched from the Taiyaun Space Center, China (TSC). Debris objects in space refer to the collection of defunct objects orbiting the Earth. Examples of debris include non-operational satellites, rocket bodies, and fragments generated from explosions, collisions, or faulty payload assembly.

Loading next visibility...
Identifier
55199, 2022-151VQ
Orbit
SSO
Country
Flag of CNCN / PRC
Related business
Manufacturer
SAST
Mission
Spacecraft
Bus & Motor
Unknown
Mass
Unknown
Launch date (UTC)
2022-11-11 (4 years ago)
Launch vehicle
Unknown
Launch site
Taiyaun Space Center, China (TSC)
Object type
Payload
Rocket body
Debris
Shape & HBR
Unknown shape, 0.1 m
Radar Cross Section
Medium (>0.1 m² and <1 m²)

Expand to show TLE details & history
Last TLE update: 2 days ago

TLE from 2 days ago
0 CZ-6A DEB
1 55199U 22151VQ  26171.01174891  .00002039  00000-0  93550-3 0  9997
2 55199  98.8049 181.3766 0040772 313.6868  46.0934 14.21979019180970
Epoch: 2026-06-20T00:16Z
TLE epoch observation values (Epoch: 2026-06-20T00:16:55.105Z)
Latitude
0.00004°
Longitude
-91.0855°
Altitude
801.291 km
Speed
7.463 km/s
True Right ascension
12h 05m 30s
True Declination
0° 00' 00"
Sunlit
Object was in daylight at epoch
Visualization orbit readout
Latitude
Unknown
Longitude
Unknown
Altitude
Unknown
Speed
Unknown
Apparent Right ascension
Unknown
Apparent Declination
Unknown
Sunlit
N/A
Visualization observer readout
Local Sidereal Time
21:39:09
Azimuth
Unknown
Elevation
Unknown
Doppler factor
Unknown
Orbital elements
Apogee altitude
845.159 km
Perigee altitude
786.497 km
Semi-major axis
7,193.965 km
Eccentricity
0.00408
Inclination
98.8049°
RAAN
181.3766°
Arg. of periapsis
313.6868°
True anomaly
46.43121°
Mean anomaly
46.0934°
Eccentric anomaly
46.26218°
Mean motion
3.55706 °/min
Orbital period
101.21 mins
BSTAR
0.0009355
Loading maneuver chart data...
Computing Atmospheric mass density...
Loading historical data...
Loading historical data...
Loading historical data...
Loading historical data...
Loading historical data...
Loading historical data...
Loading historical data...

Documentation

Showing up to 5 results
|